McAlester, OK

7:08 AM CDT on August 24, 2016 (GMT -0500)
McAlester Regional

Weather History for KMLC - August, 2013

Change the Weather History Date:

Friday, August 23, 2013

  Actual Average Record
Temperature  
Mean Temperature 80 °F -  
Max Temperature 91 °F 93 °F 103 °F (1963)
Min Temperature 71 °F 70 °F 56 °F (1961)
Cooling Degree Days 16    
Growing Degree Days 30 (Base 50)    
Moisture  
Dew Point 69 °F    
Average Humidity 69    
Maximum Humidity 87    
Minimum Humidity 52    
Precipitation  
Precipitation 0.00 in - - ()
Sea Level Pressure  
Sea Level Pressure 30.00 in    
Wind  
Wind Speed 4 mph (ENE)    
Max Wind Speed 13 mph    
Max Gust Speed 16 mph    
Visibility 10 miles    
Events Thunderstorm    
Averages and records for this station are not official NWS values.
T = Trace of Precipitation, MM = Missing Value Source: NWS Daily Summary

Daily Weather History Graph

Daily Weather History Graph

Search for Another Location

Airport or City:

Trip Planner

Search our weather history database for the weather conditions in past years. The results will help you decide how hot, cold, wet, or windy it might be!

Date:

Astronomy

Aug. 23, 2013 Rise Set
Actual Time 6:49 AM CDT 8:01 PM CDT
Civil Twilight 6:23 AM CDT 8:27 PM CDT
Nautical Twilight 5:51 AM CDT 8:58 PM CDT
Astronomical Twilight 5:19 AM CDT 9:30 PM CDT
Moon 9:31 PM CDT (8/23) 9:36 AM CDT (8/23)
Length of Visible Light 14h 04m
Length of Day
13h 11m
Waning Gibbous, 91% of the Moon is Illuminated
Aug 23
Waning Gibbous
Aug 28
Last Quarter
Sep 5
New
Sep 12
First Quarter
Sep 19
Full

Hourly Weather History & Observations

Time (CDT) Temp. Heat Index Dew Point Humidity Pressure Visibility Wind Dir Wind Speed Gust Speed Precip Events Conditions
12:53 AM 79.0 °F - 66.9 °F 66% 30.01 in 10.0 mi East 4.6 mph - N/A   Clear
1:53 AM 78.1 °F - 66.0 °F 66% 29.99 in 10.0 mi ESE 5.8 mph - N/A   Clear
2:53 AM 75.0 °F - 66.9 °F 76% 30.00 in 10.0 mi ESE 3.5 mph - N/A   Clear
3:53 AM 73.9 °F - 66.9 °F 79% 30.00 in 10.0 mi East 3.5 mph - N/A   Scattered Clouds
4:53 AM 71.1 °F - 66.9 °F 87% 29.99 in 10.0 mi Calm Calm - N/A   Partly Cloudy
5:53 AM 73.9 °F - 66.0 °F 76% 30.00 in 10.0 mi Calm Calm - N/A   Clear
6:53 AM 73.9 °F - 66.9 °F 79% 30.01 in 10.0 mi Calm Calm - N/A   Mostly Cloudy
7:53 AM 75.0 °F - 68.0 °F 79% 30.03 in 10.0 mi Calm Calm - N/A   Scattered Clouds
8:53 AM 78.1 °F - 70.0 °F 76% 30.03 in 10.0 mi Calm Calm - N/A   Mostly Cloudy
9:53 AM 79.0 °F - 69.1 °F 72% 30.04 in 10.0 mi NNE 5.8 mph - N/A   Scattered Clouds
10:53 AM 82.0 °F 86.3 °F 71.1 °F 69% 30.04 in 10.0 mi Calm Calm - N/A   Overcast
11:53 AM 88.0 °F 93.8 °F 71.1 °F 57% 30.04 in 10.0 mi NNE 5.8 mph - N/A   Scattered Clouds
12:53 PM 89.1 °F 95.0 °F 71.1 °F 55% 30.02 in 10.0 mi NNE 8.1 mph - N/A   Clear
1:53 PM 88.0 °F 93.8 °F 71.1 °F 57% 30.00 in 10.0 mi North 12.7 mph - N/A   Clear
2:22 PM 87.8 °F 93.8 °F 71.6 °F 58% 30.02 in 10.0 mi NNE 6.9 mph - N/A Thunderstorm Clear
2:37 PM 89.6 °F 94.7 °F 69.8 °F 52% 30.02 in 10.0 mi North 10.4 mph - N/A   Clear
2:53 PM 90.0 °F 95.4 °F 70.0 °F 52% 30.00 in 10.0 mi North 10.4 mph - N/A Thunderstorm Clear
3:53 PM 80.1 °F 82.1 °F 66.0 °F 62% 30.01 in 10.0 mi SSE 10.4 mph 16.1 mph N/A Thunderstorm Mostly Cloudy
4:06 PM 78.8 °F - 64.4 °F 61% 30.03 in 10.0 mi South 9.2 mph 16.1 mph N/A   Scattered Clouds
4:53 PM 81.0 °F 83.3 °F 66.9 °F 62% 29.99 in 10.0 mi Calm Calm - N/A   Clear
5:53 PM 84.9 °F 88.8 °F 69.1 °F 59% 29.96 in 10.0 mi Calm Calm - N/A   Clear
6:53 PM 82.9 °F 87.0 °F 70.0 °F 65% 29.96 in 10.0 mi ENE 3.5 mph - N/A   Clear
7:53 PM 81.0 °F 84.9 °F 71.1 °F 72% 29.96 in 10.0 mi Calm Calm - N/A   Clear
8:53 PM 78.1 °F - 70.0 °F 76% 29.97 in 10.0 mi Calm Calm - N/A   Clear
9:53 PM 75.0 °F - 70.0 °F 84% 30.00 in 10.0 mi Calm Calm - N/A   Clear
10:53 PM 75.0 °F - 71.1 °F 87% 30.00 in 10.0 mi East 3.5 mph - N/A   Clear
11:53 PM 75.9 °F - 71.1 °F 85% 30.00 in 10.0 mi ESE 3.5 mph - N/A   Clear